Weather History for Cairns, QU

Change the Weather History Date:

Sunday, November 13, 2011

  Actual Average Record
Temperature  
Mean Temperature 79 °F -  
Max Temperature 86 °F 87 °F 89 °F (2001)
Min Temperature 72 °F 73 °F 68 °F (2006)
Cooling Degree Days 14    
Growing Degree Days 29 (Base 50)    
Moisture  
Dew Point 68 °F    
Average Humidity 68    
Maximum Humidity 94    
Minimum Humidity 42    
Precipitation  
Precipitation 0.00 in 0.18 in - ()
Sea Level Pressure  
Sea Level Pressure 29.89 in    
Wind  
Wind Speed 9 mph ()    
Max Wind Speed 18 mph    
Max Gust Speed -    
Visibility 7.2 miles    
Events Rain    
Averages and records for this station are not official NWS values.
T = Trace of Precipitation, MM = Missing Value Source: Averaged Metar Reports

Daily Weather History Graph

Daily Weather History Graph

Search for Another Location

Airport:

Trip Planner

Search our weather history database for the weather conditions in past years. The results will help you decide how hot, cold, wet, or windy it might be!

Date:

Astronomy

Nov. 13, 2011 Rise Set
Actual Time 5:35 AM EST 6:27 PM EST
Civil Twilight 5:12 AM EST 6:50 PM EST
Nautical Twilight 4:45 AM EST 7:17 PM EST
Astronomical Twilight 4:17 AM EST 7:44 PM EST
Moon 8:31 PM EST (11/13) 7:05 AM EST (11/13)
Length of Visible Light 13h 38m
Length of Day
12h 52m
Waning Gibbous, 95% of the Moon is Illuminated
Nov 13
Waning Gibbous
Nov 19
Last Quarter
Nov 25
New
Dec 2
First Quarter
Dec 11
Full

Hourly Weather History & Observations

Time (EST) Temp. Heat Index Dew Point Humidity Pressure Visibility Wind Dir Wind Speed Gust Speed Precip Events Conditions
12:00 AM 75 °F - 70 °F 81% 29.93 in 2 mi ESE 8.1 mph - - Rain Heavy Rain Showers
12:00 AM 75.2 °F - 69.8 °F 83% 29.92 in 2.5 mi ESE 8.1 mph - N/A Rain Rain Showers
12:18 AM 73.4 °F - 71.6 °F 94% 29.92 in 4.3 mi SSE 8.1 mph - N/A Rain Light Rain Showers
12:30 AM 73.4 °F - 69.8 °F 88% 29.92 in 4.3 mi South 8.1 mph - N/A Rain Light Rain Showers
12:41 AM 73.4 °F - 69.8 °F 88% 29.92 in 6.2 mi South 8.1 mph - N/A Rain Light Rain Showers
1:00 AM 75 °F - 71 °F 82% 29.91 in - South 8.1 mph - -  
1:00 AM 75.2 °F - 69.8 °F 83% 29.89 in 6.2 mi South 8.1 mph - N/A Rain Light Rain Showers
1:30 AM 75.2 °F - 69.8 °F 83% 29.89 in 5.6 mi South 8.1 mph - N/A Rain Light Rain Showers
2:00 AM 73.4 °F - 71.6 °F 94% 29.89 in 6.2 mi SE 8.1 mph - N/A Rain Light Rain Showers
2:30 AM 75.2 °F - 69.8 °F 83% 29.89 in 6.2 mi SSE 4.6 mph - N/A   Mostly Cloudy
3:00 AM 75 °F - 70 °F 81% 29.89 in 12 mi South 3.5 mph - -   Mostly Cloudy
3:00 AM 75.2 °F - 69.8 °F 83% 29.89 in 6.2 mi South 3.5 mph - N/A   Mostly Cloudy
3:30 AM 75.2 °F - 71.6 °F 89% 29.89 in 6.2 mi South 3.5 mph - N/A   Mostly Cloudy
4:00 AM 74 °F - 71 °F 86% 29.89 in - SSE 6.9 mph - -  
4:00 AM 75.2 °F - 71.6 °F 89% 29.89 in 6.2 mi SSE 6.9 mph - N/A   Scattered Clouds
4:30 AM 75.2 °F - 69.8 °F 83% 29.89 in 6.2 mi South 8.1 mph - N/A   Scattered Clouds
5:00 AM 75.2 °F - 69.8 °F 83% 29.89 in 6.2 mi South 9.2 mph - N/A   Scattered Clouds
5:30 AM 75.2 °F - 69.8 °F 83% 29.89 in 6.2 mi South 8.1 mph - N/A   Partly Cloudy
6:00 AM 75 °F - 70 °F 79% 29.90 in 16 mi South 8.1 mph - -   Partly Cloudy
6:00 AM 75.2 °F - 69.8 °F 83% 29.89 in 6.2 mi South 8.1 mph - N/A   Partly Cloudy
6:30 AM 75.2 °F - 69.8 °F 83% 29.92 in 6.2 mi South 9.2 mph - N/A   Partly Cloudy
7:00 AM 76 °F - 70 °F 76% 29.93 in - South 10.4 mph - -  
7:00 AM 75.2 °F - 69.8 °F 83% 29.92 in 6.2 mi South 10.4 mph - N/A   Partly Cloudy
7:30 AM 78.8 °F - 69.8 °F 74% 29.92 in 6.2 mi South 9.2 mph - N/A   Partly Cloudy
8:00 AM 78.8 °F - 69.8 °F 74% 29.92 in 6.2 mi South 12.7 mph - N/A   Partly Cloudy
8:30 AM 80.6 °F 83.9 °F 69.8 °F 70% 29.92 in 6.2 mi SSE 11.5 mph - N/A   Partly Cloudy
9:00 AM 83 °F - 70 °F 56% 29.94 in 19 mi SE 12.7 mph - -   Partly Cloudy
9:00 AM 82.4 °F 86.3 °F 69.8 °F 66% 29.92 in 6.2 mi SE 12.7 mph - N/A   Partly Cloudy
9:30 AM 82.4 °F 86.3 °F 69.8 °F 66% 29.92 in 6.2 mi SE 11.5 mph - N/A   Partly Cloudy
10:00 AM 84 °F - 68 °F 49% 29.95 in - ESE 13.8 mph - -  
10:00 AM 84.2 °F 87.3 °F 68.0 °F 58% 29.92 in 6.2 mi ESE 13.8 mph - N/A   Partly Cloudy
10:30 AM 84.2 °F 87.3 °F 68.0 °F 58% 29.92 in 6.2 mi ESE 15.0 mph - N/A   Partly Cloudy
11:00 AM 86.0 °F 88.2 °F 66.2 °F 51% 29.92 in 6.2 mi ESE 15.0 mph - N/A   Partly Cloudy
11:30 AM 86.0 °F 88.2 °F 66.2 °F 51% 29.92 in 6.2 mi ESE 15.0 mph - N/A   Partly Cloudy
12:00 PM 85 °F - 67 °F 45% 29.91 in 19 mi ESE 12.7 mph - -   Partly Cloudy
12:00 PM 86.0 °F 88.2 °F 66.2 °F 51% 29.89 in 6.2 mi ESE 12.7 mph - N/A   Partly Cloudy
12:30 PM 86.0 °F 88.2 °F 66.2 °F 51% 29.89 in 6.2 mi SE 15.0 mph - N/A   Partly Cloudy
1:00 PM 86 °F - 67 °F 43% 29.88 in - SE 17.3 mph - -  
1:00 PM 86.0 °F 88.2 °F 66.2 °F 51% 29.86 in 6.2 mi SE 17.3 mph - N/A   Partly Cloudy
1:30 PM 86.0 °F 88.2 °F 66.2 °F 51% 29.86 in 6.2 mi ESE 16.1 mph - N/A   Partly Cloudy
2:00 PM 86.0 °F 88.2 °F 66.2 °F 51% 29.86 in 6.2 mi SE 17.3 mph - N/A   Partly Cloudy
2:30 PM 86.0 °F 88.2 °F 66.2 °F 51% 29.83 in 6.2 mi ESE 16.1 mph - N/A   Partly Cloudy
3:00 PM 85 °F - 67 °F 46% 29.85 in 19 mi ESE 17.3 mph - -   Partly Cloudy
3:00 PM 86.0 °F 89.4 °F 68.0 °F 55% 29.83 in 6.2 mi ESE 17.3 mph - N/A   Partly Cloudy
3:30 PM 86.0 °F 88.2 °F 66.2 °F 51% 29.83 in 6.2 mi SE 17.3 mph - N/A   Partly Cloudy
4:00 PM 85 °F - 65 °F 42% 29.85 in - SE 16.1 mph - -  
4:00 PM 86.0 °F 88.2 °F 66.2 °F 51% 29.83 in 6.2 mi SE 16.1 mph - N/A   Partly Cloudy
4:30 PM 84.2 °F 85.6 °F 64.4 °F 51% 29.83 in 6.2 mi SE 17.3 mph - N/A   Partly Cloudy
5:00 PM 82.4 °F 83.4 °F 62.6 °F 51% 29.83 in 6.2 mi SE 18.4 mph - N/A   Scattered Clouds
5:30 PM 80.6 °F 82.3 °F 64.4 °F 58% 29.86 in 6.2 mi SE 18.4 mph - N/A   Scattered Clouds
6:00 PM 80 °F - 65 °F 52% 29.87 in - SE 16.1 mph - -  
6:00 PM 80.6 °F 82.7 °F 66.2 °F 61% 29.86 in 6.2 mi SE 16.1 mph - N/A   Partly Cloudy
6:30 PM 78.8 °F - 66.2 °F 65% 29.86 in 6.2 mi SE 12.7 mph - N/A   Partly Cloudy
7:00 PM 78 °F - 66 °F 59% 29.89 in - SSE 12.7 mph - -  
7:00 PM 78.8 °F - 66.2 °F 65% 29.89 in 6.2 mi SSE 12.7 mph - N/A   Partly Cloudy
7:30 PM 78.8 °F - 66.2 °F 65% 29.89 in 6.2 mi SSE 9.2 mph - N/A   Partly Cloudy
8:00 PM 77.0 °F - 66.2 °F 69% 29.89 in 6.2 mi South 9.2 mph - N/A   Partly Cloudy
8:30 PM 77.0 °F - 66.2 °F 69% 29.89 in 6.2 mi South 9.2 mph - N/A   Partly Cloudy
9:00 PM 76 °F - 66 °F 65% 29.91 in 19 mi South 8.1 mph - -   Partly Cloudy
9:00 PM 75.2 °F - 66.2 °F 73% 29.89 in 6.2 mi South 8.1 mph - N/A   Partly Cloudy
9:30 PM 75.2 °F - 66.2 °F 73% 29.92 in 6.2 mi SSE 8.1 mph - N/A   Partly Cloudy
10:00 PM 75 °F - 67 °F 69% 29.93 in - South 6.9 mph - -  
10:00 PM 75.2 °F - 66.2 °F 73% 29.92 in 6.2 mi South 6.9 mph - N/A   Partly Cloudy
10:30 PM 75.2 °F - 66.2 °F 73% 29.92 in 6.2 mi SSE 6.9 mph - N/A   Partly Cloudy
11:00 PM 75.2 °F - 66.2 °F 73% 29.92 in 6.2 mi SSE 6.9 mph - N/A   Partly Cloudy
11:30 PM 73.4 °F - 66.2 °F 78% 29.92 in 6.2 mi SSE 6.9 mph - N/A   Partly Cloudy